Location: Meriden
(44.0740°N, 93.3870°W)
Time: 17:19:09
(UTC-05:00)

Amateur Radio Satellites - All Passes

Search period start: 01 October 2014 16:49
Search period end: 02 October 2014 16:49
Location: Meriden, 44.0740°N, 93.3870°W

Satellite Date Start Highest point End Downlink Frequencies (MHz)
Time Altitude Azimuth
Hamsat 01 Oct 16:57:12 16:59:28 14° 62° (ENE) 17:01:43 145.90 MHz
KITSAT 1 01 Oct 17:01:27 17:08:59 45° 111° (ESE) 17:16:32 435.175 FM
JAS-2 01 Oct 17:09:15 17:13:40 29° 63° (ENE) 17:18:19 435.800 - 435.900 CW/SSB, 435.910 FM
PCSat 01 Oct 17:11:48 17:15:22 17° 37° (NE) 17:18:55 145.825 MHz
AO-40 01 Oct 18:04:18 00:35:55 37° 185° (S) 06:03:34 Beacon 2401.320
Uosat F 01 Oct 18:05:35 18:08:48 17° 269° (W) 18:12:02 435.120 FM
OPAL 01 Oct 18:11:38 18:16:43 64° 104° (ESE) 18:21:41 ?
Sapphire 01 Oct 18:28:43 18:34:00 49° 53° (NE) 18:39:15 437.095 MHz 1200 baud AX-25 AFSK
Hamsat 01 Oct 18:30:38 18:34:55 63° 259° (W) 18:39:13 145.90 MHz
AO-7 01 Oct 18:39:39 18:44:24 16° 272° (W) 18:49:10 29.400 - 29.500 MHz
SO-67 01 Oct 18:44:59 18:47:41 22° 69° (ENE) 18:50:24 435.3500 MHz FM
JAS-2 01 Oct 18:53:53 18:58:40 37° 264° (W) 19:03:43 435.800 - 435.900 CW/SSB, 435.910 FM
PCSat 01 Oct 18:54:12 18:59:40 80° 58° (ENE) 19:05:05 145.825 MHz
KITSAT 1 01 Oct 18:56:34 19:04:20 49° 312° (NW) 19:12:10 435.175 FM
STRAND 1 01 Oct 19:14:33 19:18:44 24° 94° (E) 19:22:52 ?
SO-50 01 Oct 19:38:49 19:43:12 56° 120° (ESE) 19:47:43 436.795 FM
OPAL 01 Oct 19:51:35 19:55:06 19° 302° (WNW) 19:58:34 ?
UOSAT-12 01 Oct 20:07:39 20:07:57 10° 106° (ESE) 20:08:16 437.025 FM, 437.400 FM
Sapphire 01 Oct 20:12:40 20:17:09 27° 251° (WSW) 20:21:37 437.095 MHz 1200 baud AX-25 AFSK
SO-67 01 Oct 20:17:51 20:20:37 22° 265° (W) 20:23:24 435.3500 MHz FM
HO-68 01 Oct 20:21:39 20:28:11 41° 63° (ENE) 20:34:45 435.675 MHz FM
PCSat 01 Oct 20:39:21 20:42:22 15° 256° (WSW) 20:45:22 145.825 MHz
Oscar 11 01 Oct 20:52:20 20:54:54 16° 62° (ENE) 20:57:28 145.825 FM, Beacon 2401.500 USB
STRAND 1 01 Oct 20:53:13 20:58:06 44° 291° (WNW) 21:02:58 ?
KITSAT 1 01 Oct 20:56:34 21:01:59 19° 339° (NNW) 21:07:25 435.175 FM
FUNcube-1 01 Oct 21:18:48 21:21:03 14° 60° (ENE) 21:23:19 145.950 - 145.970 MHz USB
SO-50 01 Oct 21:20:27 21:24:06 23° 320° (NW) 21:27:50 436.795 FM
UKube-1 01 Oct 21:20:47 21:24:47 38° 69° (ENE) 21:28:49 145.840 MHz, 145.915 MHz
Saudisat 1A 01 Oct 21:22:26 21:25:00 15° 34° (NE) 21:27:34 436.775 MHz
UOSAT-12 01 Oct 21:42:39 21:47:17 83° 123° (ESE) 21:52:01 437.025 FM, 437.400 FM
ZACube-1 01 Oct 22:01:54 22:06:01 34° 69° (ENE) 22:10:12 437.345 MHz
HO-68 01 Oct 22:09:08 22:15:50 43° 261° (W) 22:22:36 435.675 MHz FM
Oscar 11 01 Oct 22:26:20 22:30:38 58° 260° (W) 22:34:57 145.825 FM, Beacon 2401.500 USB
ISS 01 Oct 22:51:15 22:54:33 73° 146° (SE) 22:57:53 145.800 FM
FUNcube-1 01 Oct 22:52:16 22:56:48 75° 258° (WSW) 23:01:27 145.950 - 145.970 MHz USB
KITSAT 1 01 Oct 22:56:43 23:01:14 16° 10° (N) 23:05:45 435.175 FM
UKube-1 01 Oct 22:57:49 23:01:06 21° 266° (W) 23:04:26 145.840 MHz, 145.915 MHz
Saudisat 1A 01 Oct 23:00:51 23:05:18 80° 55° (NE) 23:09:43 436.775 MHz
UOSAT-12 01 Oct 23:24:43 23:28:03 19° 324° (NW) 23:31:24 437.025 FM, 437.400 FM
ZACube-1 01 Oct 23:38:38 23:42:27 26° 266° (W) 23:46:20 437.345 MHz
ISS 02 Oct 00:28:33 00:31:30 28° 345° (NNW) 00:34:27 145.800 FM
Saudisat 1A 02 Oct 00:42:32 00:44:14 12° 252° (WSW) 00:45:56 436.775 MHz
KITSAT 1 02 Oct 00:52:31 00:59:39 33° 39° (NE) 01:06:45 435.175 FM
Oscar 16 02 Oct 01:29:41 01:32:04 13° 88° (E) 01:34:26 437.025 USB, Beacon 2401.1428
RS-15 02 Oct 01:37:58 01:47:17 33° 106° (ESE) 01:56:29 29.354 - 29.394 USB, Beacon 29.352 USB
ISS 02 Oct 02:06:13 02:08:54 22° 5° (N) 02:11:35 145.800 FM
Oscar 19 02 Oct 02:25:45 02:30:39 43° 98° (E) 02:35:29 437.125 CW, 437.150 USB
SO-50 02 Oct 02:29:20 02:32:22 16° 34° (NE) 02:35:24 436.795 FM
ITAMSAT 1 02 Oct 02:40:03 02:44:20 25° 94° (E) 02:48:36 435.822 SSB
Uribyol 2 02 Oct 02:40:36 02:45:01 27° 95° (E) 02:49:24 436.500 FM
KITSAT 1 02 Oct 02:47:45 02:55:50 76° 241° (WSW) 03:03:51 435.175 FM
JAS-1B 02 Oct 02:49:26 02:54:50 42° 99° (E) 03:00:37 435.800 - 435.900 CW/SSB
Oscar 16 02 Oct 03:06:52 03:12:03 80° 286° (WNW) 03:17:10 437.025 USB, Beacon 2401.1428
AO-Echo 02 Oct 03:08:27 03:13:24 56° 101° (E) 03:18:29 ?
AO-27 02 Oct 03:18:12 03:23:21 56° 101° (E) 03:28:29 436.795 MHz FM
ISS 02 Oct 03:42:54 03:46:09 48° 25° (NNE) 03:49:23 145.800 FM
RS-15 02 Oct 03:47:42 03:58:42 73° 308° (NW) 04:09:41 29.354 - 29.394 USB, Beacon 29.352 USB
Gurwin Techsat 1B 02 Oct 03:48:29 03:53:42 53° 100° (E) 03:58:53 435.225 FM
OPAL 02 Oct 03:51:00 03:54:43 20° 59° (ENE) 03:58:27 ?
Oscar 19 02 Oct 04:05:33 04:09:46 26° 296° (WNW) 04:13:57 437.125 CW, 437.150 USB
SO-50 02 Oct 04:08:53 04:13:43 77° 54° (NE) 04:18:35 436.795 FM
TMSAT-1 02 Oct 04:16:26 04:21:45 71° 102° (ESE) 04:27:02 436.925 FM
ITAMSAT 1 02 Oct 04:19:03 04:24:00 44° 291° (WNW) 04:28:56 435.822 SSB
Uribyol 2 02 Oct 04:19:43 04:24:36 41° 292° (WNW) 04:29:28 436.500 FM
UOSAT-12 02 Oct 04:31:37 04:35:05 20° 37° (NE) 04:38:31 437.025 FM, 437.400 FM
Uosat F 02 Oct 04:32:08 04:35:17 16° 91° (E) 04:38:25 435.120 FM
JAS-1B 02 Oct 04:40:37 04:45:25 29° 296° (WNW) 04:50:27 435.800 - 435.900 CW/SSB
AO-7 02 Oct 04:42:24 04:49:39 32° 96° (E) 04:56:50 29.400 - 29.500 MHz
KITSAT 1 02 Oct 04:45:36 04:49:52 15° 261° (W) 04:54:08 435.175 FM
AO-Echo 02 Oct 04:48:10 04:51:48 20° 297° (WNW) 04:55:29 ?
Oscar 16 02 Oct 04:48:41 04:50:32 12° 304° (NW) 04:52:23 437.025 USB, Beacon 2401.1428
AO-27 02 Oct 04:58:36 05:02:28 21° 298° (WNW) 05:06:19 436.795 MHz FM
ISS 02 Oct 05:19:51 05:22:43 27° 222° (SW) 05:25:34 145.800 FM
OPAL 02 Oct 05:27:58 05:33:08 62° 256° (WSW) 05:38:19 ?
Gurwin Techsat 1B 02 Oct 05:29:14 05:33:18 23° 298° (WNW) 05:37:21 435.225 FM
MaSat-1 02 Oct 05:48:47 05:53:34 61° 114° (ESE) 05:58:06 437.345 MHz
SO-50 02 Oct 05:51:03 05:53:42 15° 251° (WSW) 05:56:21 436.795 FM
TMSAT-1 02 Oct 05:57:39 06:01:06 18° 300° (WNW) 06:04:32 436.925 FM
JAS-2 02 Oct 05:59:11 06:04:57 29° 94° (E) 06:11:11 435.800 - 435.900 CW/SSB, 435.910 FM
RS-15 02 Oct 06:03:59 06:13:17 31° 338° (NNW) 06:22:43 29.354 - 29.394 USB, Beacon 29.352 USB
Uosat F 02 Oct 06:09:31 06:14:30 63° 288° (WNW) 06:19:29 435.120 FM
UOSAT-12 02 Oct 06:11:03 06:15:48 78° 237° (WSW) 06:20:27 437.025 FM, 437.400 FM
Hamsat 02 Oct 06:15:39 06:18:47 20° 93° (E) 06:21:53 145.90 MHz
STRAND 1 02 Oct 06:31:48 06:36:32 41° 68° (ENE) 06:41:19 ?
AO-7 02 Oct 06:34:44 06:42:51 61° 295° (WNW) 06:50:57 29.400 - 29.500 MHz
MaSat-1 02 Oct 07:26:50 07:30:20 20° 310° (NW) 07:33:40 437.345 MHz
SO-67 02 Oct 07:39:37 07:42:18 21° 94° (E) 07:44:57 435.3500 MHz FM
JAS-2 02 Oct 07:43:43 07:50:13 59° 289° (WNW) 07:57:28 435.800 - 435.900 CW/SSB, 435.910 FM
Hamsat 02 Oct 07:51:00 07:54:52 36° 290° (WNW) 07:58:42 145.90 MHz
STRAND 1 02 Oct 08:11:37 08:15:51 26° 266° (W) 08:20:07 ?
RS-15 02 Oct 08:21:22 08:30:16 27° 13° (NNE) 08:39:20 29.354 - 29.394 USB, Beacon 29.352 USB
AO-7 02 Oct 08:29:30 08:34:01 16° 317° (NW) 08:38:31 29.400 - 29.500 MHz
SO-67 02 Oct 09:12:27 09:15:16 24° 291° (WNW) 09:18:04 435.3500 MHz FM
Sapphire 02 Oct 09:12:30 09:17:13 32° 110° (ESE) 09:21:58 437.095 MHz 1200 baud AX-25 AFSK
JAS-2 02 Oct 09:31:47 09:34:09 12° 307° (NW) 09:36:36 435.800 - 435.900 CW/SSB, 435.910 FM
HO-68 02 Oct 09:34:49 09:41:18 35° 96° (E) 09:47:45 435.675 MHz FM
PCSat 02 Oct 09:37:16 09:42:31 55° 115° (ESE) 09:47:49 145.825 MHz
Oscar 11 02 Oct 10:13:03 10:16:29 23° 94° (E) 10:19:54 145.825 FM, Beacon 2401.500 USB
RS-15 02 Oct 10:34:57 10:45:48 55° 44° (NE) 10:57:01 29.354 - 29.394 USB, Beacon 29.352 USB
FUNcube-1 02 Oct 10:40:58 10:44:19 20° 92° (E) 10:47:36 145.950 - 145.970 MHz USB
UKube-1 02 Oct 10:43:12 10:47:32 57° 101° (E) 10:51:49 145.840 MHz, 145.915 MHz
Sapphire 02 Oct 10:55:23 11:00:30 42° 309° (NW) 11:05:40 437.095 MHz 1200 baud AX-25 AFSK
PCSat 02 Oct 11:21:41 11:26:16 27° 315° (NW) 11:30:52 145.825 MHz
HO-68 02 Oct 11:22:19 11:29:10 49° 295° (WNW) 11:36:00 435.675 MHz FM
ZACube-1 02 Oct 11:25:39 11:30:10 58° 100° (E) 11:34:33 437.345 MHz
Oscar 11 02 Oct 11:48:49 11:52:45 35° 291° (WNW) 11:56:39 145.825 FM, Beacon 2401.500 USB
Oscar 19 02 Oct 12:09:23 12:10:40 11° 55° (NE) 12:11:57 437.125 CW, 437.150 USB
FUNcube-1 02 Oct 12:16:35 12:20:54 43° 289° (WNW) 12:25:06 145.950 - 145.970 MHz USB
UKube-1 02 Oct 12:20:39 12:23:17 16° 298° (WNW) 12:25:54 145.840 MHz, 145.915 MHz
Sapphire 02 Oct 12:44:04 12:45:28 11° 332° (NNW) 12:46:51 437.095 MHz 1200 baud AX-25 AFSK
Oscar 16 02 Oct 12:47:23 12:51:29 24° 63° (ENE) 12:55:36 437.025 USB, Beacon 2401.1428
RS-15 02 Oct 12:47:36 12:58:08 51° 248° (WSW) 13:09:07 29.354 - 29.394 USB, Beacon 29.352 USB
AO-Echo 02 Oct 12:48:53 12:49:54 11° 57° (ENE) 12:50:54 ?
AO-27 02 Oct 13:01:28 13:04:15 15° 58° (ENE) 13:07:02 436.795 MHz FM
ZACube-1 02 Oct 13:03:15 13:06:05 17° 298° (WNW) 13:08:53 437.345 MHz
Saudisat 1A 02 Oct 13:10:46 13:13:03 14° 109° (ESE) 13:15:21 436.775 MHz
HO-68 02 Oct 13:13:35 13:15:12 11° 316° (NW) 13:16:48 435.675 MHz FM
Gurwin Techsat 1B 02 Oct 13:34:20 13:37:09 15° 58° (ENE) 13:39:59 435.225 FM
JAS-1B 02 Oct 13:35:54 13:42:50 47° 68° (ENE) 13:48:46 435.800 - 435.900 CW/SSB
Oscar 19 02 Oct 13:43:55 13:49:05 72° 73° (ENE) 13:54:17 437.125 CW, 437.150 USB
AO-7 02 Oct 13:56:23 13:59:48 13° 40° (NE) 14:03:13 29.400 - 29.500 MHz
ITAMSAT 1 02 Oct 13:59:21 14:04:14 44° 69° (ENE) 14:09:09 435.822 SSB
Uribyol 2 02 Oct 13:59:46 14:04:42 47° 69° (ENE) 14:09:42 436.500 FM
TMSAT-1 02 Oct 14:01:08 14:04:41 19° 60° (ENE) 14:08:15 436.925 FM
MaSat-1 02 Oct 14:03:39 14:05:34 14° 46° (NE) 14:07:21 437.345 MHz
AO-Echo 02 Oct 14:23:11 14:27:52 83° 75° (ENE) 14:32:38 ?
Oscar 16 02 Oct 14:25:32 14:30:32 48° 261° (W) 14:35:34 437.025 USB, Beacon 2401.1428
AO-27 02 Oct 14:37:52 14:43:03 84° 256° (WSW) 14:48:17 436.795 MHz FM
Saudisat 1A 02 Oct 14:47:41 14:52:04 69° 307° (NW) 14:56:29 436.775 MHz
Gurwin Techsat 1B 02 Oct 15:11:05 15:16:24 87° 256° (WSW) 15:21:45 435.225 FM
Oscar 19 02 Oct 15:26:03 15:28:58 15° 271° (W) 15:31:53 437.125 CW, 437.150 USB
JAS-1B 02 Oct 15:27:00 15:33:34 33° 263° (W) 15:39:18 435.800 - 435.900 CW/SSB
KITSAT 1 02 Oct 15:28:25 15:31:05 12° 97° (E) 15:33:44 435.175 FM
TMSAT-1 02 Oct 15:38:49 15:44:04 67° 258° (WSW) 15:49:22 436.925 FM
MaSat-1 02 Oct 15:39:10 15:42:17 38° 250° (WSW) 15:45:00 437.345 MHz
ITAMSAT 1 02 Oct 15:39:42 15:43:54 25° 266° (W) 15:48:09 435.822 SSB
Uribyol 2 02 Oct 15:40:19 15:44:24 23° 267° (W) 15:48:32 436.500 FM
AO-7 02 Oct 15:42:47 15:50:41 51° 62° (ENE) 15:58:34 29.400 - 29.500 MHz
Uosat F 02 Oct 15:46:32 15:50:43 28° 65° (ENE) 15:54:55 435.120 FM
Oscar 10/S400 02 Oct 16:00:20 16:16:57 36° 151° (SSE) 16:43:14 145.825 - 145.975 CW/USB, Beacon 145.810 USB
AO-Echo 02 Oct 16:06:16 16:07:18 11° 273° (W) 16:08:21 ?
JAS-2 02 Oct 16:18:01 16:19:27 11° 52° (NE) 16:20:55 435.800 - 435.900 CW/SSB, 435.910 FM
AO-27 02 Oct 16:22:28 16:23:21 10° 273° (W) 16:24:14 436.795 MHz FM
Saudisat 1A 02 Oct 16:30:13 16:32:28 14° 327° (NNW) 16:34:43 436.775 MHz
PCSat 02 Oct 16:41:37 16:44:29 14° 34° (NNE) 16:47:20 145.825 MHz
